Starlink 34841

operational
NORAD ID: 65208 Int'l Des: 2025-176 Owner: SPXS Country: US Constellation: starlink
LEOCIRCULAR

About Starlink 34841

Description loading...

Live Position

Loading 3D Globe...

Upcoming Passes

Altitude History

Altitude vs Time

uPlot chart will show altitude changes over time

Two-Line Element Set

1 65208U 25176L 26063.49316369 .00072067 00000-0 24195-2 0 9995
2 65208 53.1636 176.9533 0000900 97.0093 263.1010 15.30231657 32324
Epoch: Mar 4, 2026 • Age: 18 hours

Current Status

Altitude 477.7 km
Velocity 7.63 km/s
Sub-Earth Point 37.51°N, 133.25°E
Launch Date Aug 14, 2025
Age 0.5 years
Type internet

Technical Details

Classification Payload
Mass 575.00 kg
Dry Mass 530.00 kg
Total Mass 575.00 kg
Length 0.30 m
Diameter 4.10 m
Span 29.00 m
Shape Box + pan
Manufacturer SPXS
Bus Type Starlink V2MO
Phase Status In Orbit
Owner/State SPXS/US

Large Constellations

Loading constellations...